Location: Wien
(48.2082°N, 16.3738°E)
Time: 21:34:55
(UTC+01:00)

BUGSAT 1 - Visible Passes

Search period start: 22 March 2019 00:00
Search period end: 01 April 2019 01:00
Orbit: 559 x 604 km, 98.0° (Epoch: 22 March)

Date Brightness Start Highest point End Pass type
(mag) Time Alt. Az. Time Alt. Az. Time Alt. Az.
22 Mar ? 02:29:04 10° N 02:30:34 21° N 02:30:34 21° N visible
23 Mar ? 02:34:32 10° N 02:36:12 23° N 02:36:12 23° N visible
24 Mar ? 02:40:01 10° N 02:41:50 24° N 02:41:50 24° N visible
25 Mar ? 01:10:52 10° NE 01:11:05 11° NE 01:11:05 11° NE visible
25 Mar ? 02:45:30 10° N 02:47:28 25° NNW 02:47:28 25° NNW visible
26 Mar ? 01:16:09 10° NE 01:16:43 13° NE 01:16:43 13° NE visible
26 Mar ? 02:50:59 10° N 02:53:06 26° NNW 02:53:06 26° NNW visible
27 Mar ? 01:21:27 10° NE 01:22:21 15° NE 01:22:21 15° NE visible
27 Mar ? 02:56:29 10° N 02:58:44 26° NNW 02:58:44 26° NNW visible
28 Mar ? 01:26:47 10° NE 01:27:59 17° NE 01:27:59 17° NE visible
28 Mar ? 03:02:00 10° N 03:04:22 26° NNW 03:04:22 26° NNW visible
29 Mar ? 01:32:07 10° NNE 01:33:37 19° NE 01:33:37 19° NE visible
29 Mar ? 03:07:31 10° N 03:10:00 25° NW 03:10:00 25° NW visible
30 Mar ? 01:37:29 10° NNE 01:39:15 22° NE 01:39:15 22° NE visible
30 Mar ? 03:13:03 10° N 03:15:37 24° NW 03:15:37 24° NW visible
31 Mar ? 01:42:51 10° NNE 01:44:53 24° NE 01:44:53 24° NE visible
31 Mar ? 04:18:36 10° N 04:21:15 23° NW 04:21:15 23° NW visible
